Location: Easthampton
(42.2676°N, 72.6690°W)
Time: 08:38:04
(UTC+00:00)

Gurwin Techsat 1B - Pass Details

Date: 05 April 2023
Orbit: 811 x 813 km, 98.9° (Epoch: 02 June)

Event Time Altitude Azimuth Distance (km) Brightness Sun altitude
Rises 07:13:39 0° 20° (NNE) 3,347 12.8 -32.2°
Reaches altitude 10° 07:16:08 10° 28° (NNE) 2,411 11.9 -31.8°
Maximum altitude 07:21:10 42° 99° (E) 1,149 9.5 -31.2°
Enters shadow 07:21:17 42° 102° (ESE) 1,150 9.5 -31.2°
